UOSAT 2 (UO-11) (14781 NORAD) Tracking and Keplerian Element Data

This shows tracking and keplerian element data for the satellite.

Feedback or suggestion? Click here.




ElementValue
Catalog14781
NameUOSAT 2 (UO-11)
Epoch Orbit14627
Epoch Day12.90052997
Epoch Year2024
RAAN347.1572
Inclination97.6852
Eccentricity0.0006842
Argument of Perigee224.5548
Mean Anonmoly135.5119
Mean Motion14.8587294
Decay Rate2.357E-05
L11 14781U 84021B 24012.90052997 .00002357 00000+0 27644-3 0 9998
L22 14781 97.6852 347.1572 0006842 224.5548 135.5119 14.85872940146272



Live tracking and technical data element details for UOSAT 2 (UO-11) (NORAD 14781). UOSAT 2 (UO-11) can be tracked NOW for your location showing map with azimuth and elevation plus other details from your city location.







IsCatalogInMostPopularTable: catalog: 14781, numindb: 740
Update: records affected: 1



GetName: 14781 UOSAT 2 (UO-11)

Hit Count: updated at: Fri, 19 Apr 2024 13:00:14 GMT